Location: Dos Palmas
(32.4468°N, 116.8732°W)
Time: 00:30:44
(UTC+00:00)

ARIANE 5 R/B - Pass Details

Date: 20 June 2021
Orbit: 620 x 656 km, 98.1° (Epoch: 28 July)

Event Time Altitude Azimuth Distance (km) Brightness Sun altitude
Exits shadow 05:23:12 85° 105° (ESE) 649 2.5 -24.2°
Maximum altitude 05:23:15 85° 77° (ENE) 649 2.5 -24.2°
Drops below altitude 10° 05:27:44 10° 349° (N) 2,051 6.1 -24.7°
Sets 05:29:58 0° 349° (N) 2,970 7.1 -25.0°
